Satellite: MET-3/5
Catalog number: 21655
Epoch time:      08163.95130906
Element set:    0551
Inclination:      082.5519 deg
RA of node:       108.0825 deg
Eccentricity:    0.0014736
Arg of perigee:   029.7247 deg
Mean anomaly:     330.4710 deg
Mean motion:   13.17015899 rev/day
Decay rate:        5.1e-07 rev/day^2
Epoch rev:           80889
Checksum:              307

Satellite: MET-2/21
Catalog number: 22782
Epoch time:      08163.85805841
Element set:     166
Inclination:      082.5472 deg
RA of node:       115.8065 deg
Eccentricity:    0.0021338
Arg of perigee:   308.3632 deg
Mean anomaly:     051.5618 deg
Mean motion:   13.83629430 rev/day
Decay rate:       1.76e-06 rev/day^2
Epoch rev:           74639
Checksum:              310

Satellite: OKEAN-4
Catalog number: 23317
Epoch time:      08164.73754833
Element set:     612
Inclination:      082.5393 deg
RA of node:       319.2197 deg
Eccentricity:    0.0023311
Arg of perigee:   138.3796 deg
Mean anomaly:     221.9190 deg
Mean motion:   14.82617241 rev/day
Decay rate:       2.30e-06 rev/day^2
Epoch rev:           73762
Checksum:              297

Satellite: NOAA-14
Catalog number: 23455
Epoch time:      08163.74447978
Element set:    0178
Inclination:      098.9464 deg
RA of node:       235.9846 deg
Eccentricity:    0.0009900
Arg of perigee:   155.5372 deg
Mean anomaly:     204.6253 deg
Mean motion:   14.13744891 rev/day
Decay rate:       2.56e-06 rev/day^2
Epoch rev:           69358
Checksum:              349

Satellite: SICH-1
Catalog number: 23657
Epoch time:      08164.75796699
Element set:     410
Inclination:      082.5273 deg
RA of node:       100.1884 deg
Eccentricity:    0.0025044
Arg of perigee:   131.1996 deg
Mean anomaly:     229.1395 deg
Mean motion:   14.81584920 rev/day
Decay rate:       1.95e-06 rev/day^2
Epoch rev:           68956
Checksum:              332

Satellite: NOAA-15
Catalog number: 25338
Epoch time:      08163.94980071
Element set:    0500
Inclination:      098.5532 deg
RA of node:       155.9411 deg
Eccentricity:    0.0011658
Arg of perigee:   060.0545 deg
Mean anomaly:     300.1826 deg
Mean motion:   14.24706996 rev/day
Decay rate:       1.23e-06 rev/day^2
Epoch rev:           52405
Checksum:              287

Satellite: RESURS
Catalog number: 25394
Epoch time:      08163.98017638
Element set:    0949
Inclination:      098.3890 deg
RA of node:       208.1781 deg
Eccentricity:    0.0000782
Arg of perigee:   177.1780 deg
Mean anomaly:     182.9404 deg
Mean motion:   14.24161680 rev/day
Decay rate:        1.4e-07 rev/day^2
Epoch rev:           51570
Checksum:              311

Satellite: FENGYUN1
Catalog number: 25730
Epoch time:      08163.93978008
Element set:    0463
Inclination:      098.7222 deg
RA of node:       139.9046 deg
Eccentricity:    0.0019500
Arg of perigee:   181.2269 deg
Mean anomaly:     178.8857 deg
Mean motion:   14.07683925 rev/day
Decay rate:      -1.43e-06 rev/day^2
Epoch rev:           46822
Checksum:              328

Satellite: OKEAN-0
Catalog number: 25860
Epoch time:      08163.61615400
Element set:    0391
Inclination:      097.7491 deg
RA of node:       154.4102 deg
Eccentricity:    0.0000848
Arg of perigee:   039.7928 deg
Mean anomaly:     320.3340 deg
Mean motion:   14.73524474 rev/day
Decay rate:        7.0e-08 rev/day^2
Epoch rev:           47857
Checksum:              293

Satellite: NOAA-16
Catalog number: 26536
Epoch time:      08163.82360941
Element set:    0970
Inclination:      099.1552 deg
RA of node:       152.8823 deg
Eccentricity:    0.0009620
Arg of perigee:   238.5243 deg
Mean anomaly:     121.4987 deg
Mean motion:   14.12483617 rev/day
Decay rate:        2.7e-07 rev/day^2
Epoch rev:           39801
Checksum:              310

Satellite: NOAA-17
Catalog number: 27453
Epoch time:      08163.78246482
Element set:    0962
Inclination:      098.5341 deg
RA of node:       228.5650 deg
Eccentricity:    0.0012769
Arg of perigee:   121.7928 deg
Mean anomaly:     238.4484 deg
Mean motion:   14.23980532 rev/day
Decay rate:       1.44e-06 rev/day^2
Epoch rev:           31003
Checksum:              314

Satellite: NOAA-18
Catalog number: 28654
Epoch time:      08163.80601712
Element set:    0463
Inclination:      098.8674 deg
RA of node:       104.8015 deg
Eccentricity:    0.0013934
Arg of perigee:   332.9521 deg
Mean anomaly:     027.0914 deg
Mean motion:   14.11170942 rev/day
Decay rate:       2.36e-06 rev/day^2
Epoch rev:           15771
Checksum:              291

/EX
SB KEPS @ AMSAT  $ORB08164.M
Orbital Elements  08164.MISC

HR AMSAT ORBITAL ELEMENTS FOR MANNED AND MISCELLANEOUS SATELLITES
FROM WA5QGD FORT WORTH,TX June 12, 2008
Send Subscribe/unsubscribe to KEPS at 
http://www.amsat.org/mailman/listinfo/keps
BID: ORB08164.M
TO ALL RADIO AMATEURS BT

Satellite: HUBBLE
Catalog number: 20580
Epoch time:      08163.88919472
Element set:    0156
Inclination:      028.4691 deg
RA of node:       357.7789 deg
Eccentricity:    0.0003451
Arg of perigee:   326.0892 deg
Mean anomaly:     033.9476 deg
Mean motion:   15.00384978 rev/day
Decay rate:       2.43e-06 rev/day^2
Epoch rev:           79418
Checksum:              336

